Location: Ffm
(50.0000°N, 8.5000°E)
Time: 10:07:04
(UTC+01:00)

Envisat - Pass Details

Date: 28 October 2020
Orbit: 764 x 766 km, 98.1° (Epoch: 03 December)

Event Time Altitude Azimuth Distance (km) Brightness Sun altitude
Rises 05:40:38 0° 22° (NNE) 3,244 6.5 -14.8°
Reaches altitude 10° 05:43:13 10° 33° (NNE) 2,312 5.9 -14.4°
Maximum altitude 05:47:41 30° 94° (E) 1,344 5.1 -13.7°
Drops below altitude 10° 05:52:08 10° 155° (SSE) 2,295 5.9 -12.9°
Sets 05:54:41 0° 166° (SSE) 3,216 6.5 -12.5°
